Weather History for New Orleans, LA

Change the Weather History Date:

Saturday, June 29, 2013

  Actual Average Record
Temperature  
Mean Temperature 80 °F -  
Max Temperature 88 °F 90 °F 96 °F (1969)
Min Temperature 72 °F 73 °F 62 °F (1974)
Cooling Degree Days 15    
Growing Degree Days 30 (Base 50)    
Moisture  
Dew Point 74 °F    
Average Humidity 82    
Maximum Humidity 100    
Minimum Humidity 57    
Precipitation  
Precipitation 1.81 in - - ()
Sea Level Pressure  
Sea Level Pressure 29.80 in    
Wind  
Wind Speed 8 mph (West)    
Max Wind Speed 26 mph    
Max Gust Speed 41 mph    
Visibility 8 miles    
Events Fog , Rain , Thunderstorm    
Averages and records for this station are not official NWS values.
T = Trace of Precipitation, MM = Missing Value Source: NWS Daily Summary

Daily Weather History Graph

Daily Weather History Graph

Search for Another Location

Airport:

Trip Planner

Search our weather history database for the weather conditions in past years. The results will help you decide how hot, cold, wet, or windy it might be!

Date:

Astronomy

Jun. 29, 2013 Rise Set
Actual Time 6:02 AM CDT 8:06 PM CDT
Civil Twilight 5:35 AM CDT 8:33 PM CDT
Nautical Twilight 5:02 AM CDT 9:06 PM CDT
Astronomical Twilight 4:26 AM CDT 9:42 PM CDT
Moon 12:04 AM CDT (6/29) 12:42 PM CDT (6/29)
Length of Visible Light 14h 58m
Length of Day
14h 03m
Waning Gibbous, 55% of the Moon is Illuminated
Jun 29
Waning Gibbous
Jun 29
Last Quarter
Jul 8
New
Jul 15
First Quarter
Jul 22
Full

Hourly Weather History & Observations

Time (CDT) Temp. Heat Index Dew Point Humidity Pressure Visibility Wind Dir Wind Speed Gust Speed Precip Events Conditions
12:53 AM 81.0 °F 87.3 °F 75.9 °F 85% 29.83 in 10.0 mi WSW 5.8 mph - N/A   Mostly Cloudy
1:53 AM 81.0 °F 87.3 °F 75.9 °F 85% 29.82 in 10.0 mi West 4.6 mph - N/A   Mostly Cloudy
2:53 AM 81.0 °F 87.3 °F 75.9 °F 85% 29.78 in 10.0 mi SSW 11.5 mph - N/A   Mostly Cloudy
3:53 AM 80.1 °F 85.1 °F 75.0 °F 85% 29.80 in 10.0 mi WSW 8.1 mph - N/A   Mostly Cloudy
4:53 AM 78.1 °F - 75.0 °F 90% 29.81 in 10.0 mi West 3.5 mph - N/A   Mostly Cloudy
5:53 AM 80.1 °F 85.1 °F 75.0 °F 85% 29.82 in 10.0 mi SW 8.1 mph - N/A   Mostly Cloudy
6:53 AM 80.1 °F 85.4 °F 75.9 °F 87% 29.82 in 10.0 mi Calm Calm - N/A   Overcast
7:01 AM 80.6 °F 86.2 °F 75.2 °F 84% 29.81 in 10.0 mi Calm Calm - N/A   Overcast
7:14 AM 80.6 °F 86.2 °F 75.2 °F 84% 29.82 in 10.0 mi ENE 8.1 mph - N/A Thunderstorm Thunderstorm
7:34 AM 78.8 °F - 71.6 °F 78% 29.80 in 10.0 mi NNE 11.5 mph - N/A Thunderstorm Thunderstorm
7:46 AM 75.2 °F - 71.6 °F 89% 29.82 in 2.0 mi Variable 3.5 mph 25.3 mph 0.03 in Rain , Thunderstorm Thunderstorms and Rain
7:50 AM 75.2 °F - 71.6 °F 89% 29.82 in 1.5 mi ENE 6.9 mph - 0.17 in Rain , Thunderstorm Thunderstorms and Rain
7:53 AM 75.0 °F - 72.0 °F 90% 29.83 in 1.5 mi NE 16.1 mph - 0.26 in Rain , Thunderstorm Heavy Thunderstorms and Rain
8:03 AM 75.2 °F - 73.4 °F 94% 29.83 in 0.8 mi NNE 21.9 mph 28.8 mph 0.18 in Rain , Thunderstorm Heavy Thunderstorms and Rain
8:08 AM 73.4 °F - 73.4 °F 100% 29.86 in 0.2 mi NNE 26.5 mph 41.4 mph 0.38 in Fog , Rain , Thunderstorm Heavy Thunderstorms and Rain
8:17 AM 73.4 °F - 73.4 °F 100% 29.86 in 0.5 mi East 9.2 mph 32.2 mph 1.10 in Fog , Rain , Thunderstorm Heavy Thunderstorms and Rain
8:21 AM 73.4 °F - 73.4 °F 100% 29.86 in 1.0 mi ENE 9.2 mph - 1.34 in Rain , Thunderstorm Heavy Thunderstorms and Rain
8:24 AM 73.4 °F - 73.4 °F 100% 29.86 in 2.0 mi ENE 9.2 mph - 1.38 in Rain , Thunderstorm Thunderstorms and Rain
8:29 AM 73.4 °F - 73.4 °F 100% 29.86 in 2.5 mi ENE 6.9 mph - 1.40 in Rain , Thunderstorm Thunderstorms and Rain
8:33 AM 75.2 °F - 73.4 °F 94% 29.87 in 4.0 mi Calm Calm - 1.41 in Rain , Thunderstorm Light Thunderstorms and Rain
8:50 AM 75.2 °F - 73.4 °F 94% 29.84 in 9.0 mi West 4.6 mph - 1.42 in Rain Light Rain
8:53 AM 75.0 °F - 73.0 °F 94% 29.84 in 8.0 mi West 9.2 mph - 1.42 in Rain Light Rain
9:10 AM 75.2 °F - 73.4 °F 94% 29.83 in 8.0 mi WNW 3.5 mph - 0.00 in Thunderstorm Thunderstorm
9:53 AM 72.0 °F - 68.0 °F 87% 29.85 in 4.0 mi West 19.6 mph 28.8 mph 0.03 in Rain , Thunderstorm Light Thunderstorms and Rain
10:19 AM 73.4 °F - 68.0 °F 83% 29.82 in 8.0 mi SW 10.4 mph - 0.09 in Rain Light Rain
10:53 AM 78.1 °F - 71.1 °F 79% 29.83 in 10.0 mi SW 10.4 mph 17.3 mph 0.09 in   Overcast
11:53 AM 81.0 °F 84.4 °F 70.0 °F 69% 29.80 in 10.0 mi SW 10.4 mph - N/A   Overcast
12:53 PM 82.9 °F 87.5 °F 71.1 °F 67% 29.80 in 10.0 mi WSW 11.5 mph - N/A   Mostly Cloudy
1:53 PM 86.0 °F 92.2 °F 72.0 °F 63% 29.79 in 10.0 mi West 12.7 mph 18.4 mph N/A   Mostly Cloudy
2:53 PM 88.0 °F 93.8 °F 71.1 °F 57% 29.78 in 10.0 mi WSW 12.7 mph - N/A   Mostly Cloudy
3:53 PM 87.1 °F 95.4 °F 73.9 °F 65% 29.75 in 10.0 mi WNW 17.3 mph 21.9 mph N/A   Mostly Cloudy
4:53 PM 86.0 °F 93.8 °F 73.9 °F 67% 29.73 in 10.0 mi WSW 6.9 mph - N/A   Mostly Cloudy
5:18 PM 86.0 °F 95.1 °F 75.2 °F 70% 29.72 in 10.0 mi West 9.2 mph 17.3 mph N/A   Mostly Cloudy
5:47 PM 86.0 °F 95.1 °F 75.2 °F 70% 29.72 in 10.0 mi West 11.5 mph - N/A   Mostly Cloudy
5:53 PM 87.1 °F 96.3 °F 75.0 °F 67% 29.73 in 10.0 mi West 9.2 mph - N/A   Mostly Cloudy
6:53 PM 86.0 °F 96.0 °F 75.9 °F 72% 29.73 in 10.0 mi WSW 8.1 mph - N/A   Mostly Cloudy
7:53 PM 84.0 °F 92.6 °F 75.9 °F 76% 29.74 in 10.0 mi West 4.6 mph - N/A   Mostly Cloudy
8:53 PM 82.9 °F 91.8 °F 77.0 °F 82% 29.74 in 10.0 mi WSW 5.8 mph - N/A   Mostly Cloudy
9:53 PM 82.0 °F 90.2 °F 77.0 °F 85% 29.76 in 10.0 mi West 5.8 mph - N/A   Mostly Cloudy
10:53 PM 81.0 °F 86.2 °F 73.9 °F 79% 29.76 in 10.0 mi West 5.8 mph - N/A   Mostly Cloudy
11:21 PM 80.6 °F 84.6 °F 71.6 °F 74% 29.76 in 10.0 mi NW 11.5 mph - N/A Thunderstorm Thunderstorm
11:53 PM 77.0 °F - 69.1 °F 76% 29.76 in 10.0 mi WNW 11.5 mph - N/A   Mostly Cloudy